Flag for Japan Weather past 2 weeks in Utsunomiya, Japan

Now
73 °F

Mild.


Feels Like: 69 °F
Forecast: 71 / 86 °F
Wind: 2 mph from North

Location: Mito

Current Time: Sep 2, 2015 at 1:12:58 AM

Latest Report: Sep 2, 2015 at 12:00 AM


Visibility: N/A

Pressure: 29.90 "Hg

Humidity: 98%

Dew point: 73 °F

Location of UtsunomiyaLocation

Historic Weather in Utsunomiya — Graph

°F

Utsunomiya temperature yesterday

Maximum temperature yesterday: 77 °F (at 2:00 PM)
Minimum temperature yesterday: 69 °F (at 5:00 AM)
Average temperature yesterday: 73 °F

Past Weeks' High & Low Weather Summary

 TemperatureHumidityPressure
High92 °F (Aug 22, 3:00 PM)98% (Aug 21, 2:00 AM)30.02 "Hg (Aug 21, 2:00 AM)
Low67 °F (Aug 29, 3:00 AM)53% (Aug 19, 10:00 AM)29.50 "Hg (Aug 22, 3:00 PM)
Average74 °F83%29.83 "Hg
* Reported Aug 17 11:00 PM — Sep 1 11:00 PM, Utsunomiya, Weather by CustomWeather, © 2015

Note: Actual official high and low records may vary slightly from our data, if they occured in-between our weather recording intervals... More about our weather records

Advertising

Utsunomiya weather history for previous 24 hours

 ConditionsComfort  
Time TempWeatherWind HumidityBarometerVisibility
11:00 PM
Tue, Sep 1
74 °FMild.3 mph97%29.89 "HgN/A
10:00 PM75 °FMild.3 mph94%29.92 "HgN/A
9:00 PM73 °FThunderstorms. Overcast.5 mph95%29.95 "Hg9 mi
8:00 PM74 °FMild.3 mph92%29.96 "HgN/A
7:00 PM74 °FMild.3 mph91%29.95 "HgN/A
6:00 PM74 °FMild.3 mph90%29.94 "HgN/A
5:00 PM77 °FMild.5 mph82%29.94 "HgN/A
4:00 PM76 °FMild.7 mph81%29.95 "HgN/A
3:00 PM76 °FLight rain. Overcast.6 mph80%29.95 "Hg12 mi
2:00 PM77 °FWarm.5 mph79%29.97 "HgN/A
1:00 PM76 °FMild.5 mph82%29.98 "HgN/A
11:00 AM77 °FMild.3 mph77%30.01 "HgN/A
10:00 AM75 °FMild.2 mph84%30.02 "HgN/A
9:00 AM73 °FOvercast.2 mph90%30.01 "Hg6 mi
8:00 AM71 °FMild.3 mph95%30.01 "HgN/A
7:00 AM70 °FMild.2 mph96%30.00 "HgN/A
5:00 AM69 °FMild.2 mph97%30.00 "HgN/A
4:00 AM70 °FMild.2 mph97%30.00 "HgN/A
3:00 AM70 °FLight rain. Overcast.1 mph97%30.01 "Hg6 mi
2:00 AM70 °FMild.1 mph95%30.01 "HgN/A
1:00 AM70 °FMild.No wind95%30.00 "HgN/A
Weather by CustomWeather, © 2015

See weather overviewHow to use our weather pages